Location: C�mpuri de-Sus
(45.9500°N, 22.5500°E)
Time: 18:35:00
(UTC+00:00)

Cosmos 839 Rocket - Pass Details

Date: 07 December 2023
Orbit: 960 x 2093 km, 65.9° (Epoch: 20 February)

Event Time Altitude Azimuth Distance (km) Brightness Sun altitude
Exits shadow 22:55:06 14° 66° (ENE) 4,276 7.4 -65.7°
Drops below altitude 10° 22:57:03 10° 57° (ENE) 4,554 7.6 -65.6°
Sets 23:01:55 0° 42° (NE) 5,480 8.2 -65.3°
